Weather in Fukushima

Japan     37°45′35″N   140°27′30″E
temp.,
°C
wind,
m/s
gust,
m/s
humid.,
%
clouds,
%
prec.,
mm/h
press.,
hPa
HPBL,
m
23 january, sun
sun2300:00−5ssw119691 0.0 102622
03:00−5ssw119696 0.0 102520
06:00−5ssw119526 0.0 102534
09:00−1s127920 0.0 1025221
12:00+4s126899 0.0 1022567
15:00+4s1272100 0.0 1019384
18:00−2w1195100 0.0 102011
21:00−3ssw1193100 0.0 101921
24 january, mon
mon2400:00−3ssw119299 0.0 101728
03:00−4wsw119437 0.0 101616
06:00−3wnw059329 0.0 1017118
09:00+2nw49703 0.1 10171039
12:00+4nw596112 0.1 10171549
15:00+2nw511654 0.1 10171246
18:00−1nw411701 0.0 1020573
21:00−2nw37752 0.0 1021248
25 january, tue
tue2500:00−5sse11905 0.0 102137
03:00−4sse0188100 0.0 102231
06:00−4s119182 0.0 102225
09:00−1s127199 0.0 1023282
12:00+3ssw1255100 0.0 1021795
15:00+3ssw015589 0.0 1020738
18:00−3nnw11916 0.0 102211
21:00−4sw119498 0.0 102211
26 january, wed
wed2600:00−4s1191100 0.0 102216
03:00−4ssw019098 0.0 102013
06:00−4sw009053 0.0 102013
09:000e006754 0.0 1019204
12:00+5ene115172 0.0 1015521
15:00+5ene11581 0.0 1013429
18:00−1e118127 0.0 101310
21:000s129677 1.0 101478
27 january, thu
thu2700:00+1nw388372 1.3 1014560
03:00−1nw410808 1.3 1015741
06:00−1nw613775 0.1 1016879
09:00+1nw713696 0.1 10171311
12:00+3nw6126322 0.1 10171887
15:00+2nw612666 0.1 10171627
18:00−1nw510765 0.1 1019707
21:00−1wnw410775 0.1 1019653